STARLINK-2234, 48580

Orbit data source: Space-Track

STARLINK-2234, 48580 is a payload satellite owned by SpaceX/Seattle (US) in LEO that was launched on Sat, 15 May 2021 UTC via an FALCON 9 launch vehicle from the Air Force Eastern Test Range (AFETR). Payload-class satellites include a variety of spacecraft equipped with specific instruments for various scientific and technological missions. These include communications satellites like Starlink; space stations such as the ISS; scientific satellites like the Hubble; Earth observation satellites from companies like Planet Labs, Umbra, and HawkEye 360; GPS; miniature CubeSats for education and research; and military/defense satellites.

Loading next visibility...
Identifier
48580, 2021-041AD
Orbit
LEO
Country
Flag of USUS
Related business
Manufacturer
SpaceX/Seattle
Mission
Operational Commercial Communications
Bus & Motor
STARLINK, Unknown motor
Mass
260 kg wet, ~248 kg dry
Launch date (UTC)
2021-05-15 (5 years ago)
Launch vehicle
FALCON 9
Launch site
Air Force Eastern Test Range (AFETR)
Object type
Payload
Rocket body
Debris
Shape & HBR
Box + 1 Pan, 10.1 m
Radar Cross Section
13.562 m², Large (>1 m²)

Expand to show TLE details & history
Last TLE update: 21 hours ago

TLE from 21 hours ago
0 STARLINK-2234
1 48580U 21041AD  25348.82514689 -.00000314  00000-0 -21722-5 0  9997
2 48580  53.0551 127.5982 0001303  89.4871 270.6267 15.06388007252764
Epoch: 2025-12-14T19:48Z
TLE epoch observation values (Epoch: 2025-12-14T19:48:12.691Z)
Latitude
-0.00003°
Longitude
106.81279°
Altitude
548.118 km
Speed
7.589 km/s
True Right ascension
08h 30m 23s
True Declination
0° 00' 00"
Sunlit
Object was in full shadow at epoch
Visualization orbit readout
Latitude
Unknown
Longitude
Unknown
Altitude
Unknown
Speed
Unknown
Apparent Right ascension
Unknown
Apparent Declination
Unknown
Sunlit
N/A
Visualization observer readout
Local Sidereal Time
15:11:34
Azimuth
Unknown
Elevation
Unknown
Doppler factor
Unknown
Orbital elements
Apogee altitude
548.421 km
Perigee altitude
546.617 km
Semi-major axis
6,925.656 km
Eccentricity
0.00013
Inclination
53.0551°
RAAN
127.5982°
Arg. of periapsis
89.4871°
True anomaly
270.61177°
Mean anomaly
270.6267°
Eccentric anomaly
270.61923°
Mean motion
3.76575 °/min
Orbital period
95.6 mins
BSTAR
-0.0000021722
Loading maneuver chart data...
Computing Atmospheric mass density...
Loading historical data...
Loading historical data...
Loading historical data...
Loading historical data...
Loading historical data...
Loading historical data...
Loading historical data...

Documentation

Showing up to 5 results
|